WZZ39FE EKBI-EPKT

Flight info

Callsign WZZ39FE
Flight time 1h 18m
Altitude 37000
Route RIDSI DCT TUDLO DCT NEDIK DCT ALUKA DCT NAVDI DCT KULUV DCT NUDRO DCT MOFKE
Aircraft A321/M-SDE3FGHIRWY/LB1

Departure

Time 2026-05-05 20:51
Airport Billund Airport (EKBI)

Arrival

Time 2026-05-05 22:09
Airport Katowice Wojciech Korfanty International Airport (EPKT)
Time Latitude Longitude Altitude Speed Heading
2026-05-05 20:36 55.74528 9.14750 218 ft 0 kts 357°
2026-05-05 20:43 55.74517 9.14751 221 ft 4 kts 355°
2026-05-05 20:44 55.74490 9.14757 221 ft 4 kts 346°
2026-05-05 20:44 55.74465 9.14773 223 ft 4 kts 326°
2026-05-05 20:44 55.74450 9.14803 219 ft 3 kts 272°
2026-05-05 20:44 55.74450 9.14809 219 ft 2 kts 267°
2026-05-05 20:45 55.74450 9.14810 219 ft 0 kts 267°
2026-05-05 20:47 55.74450 9.14803 219 ft 3 kts 267°
2026-05-05 20:47 55.74446 9.14702 218 ft 10 kts 266°
2026-05-05 20:47 55.74442 9.14566 222 ft 11 kts 266°
2026-05-05 20:47 55.74401 9.14466 216 ft 12 kts 188°
2026-05-05 20:48 55.74315 9.14471 216 ft 13 kts 178°
2026-05-05 20:48 55.74257 9.14379 219 ft 14 kts 268°
2026-05-05 20:48 55.74251 9.14201 224 ft 15 kts 266°
2026-05-05 20:48 55.74244 9.14005 216 ft 17 kts 266°
2026-05-05 20:49 55.74239 9.13791 216 ft 18 kts 266°
2026-05-05 20:49 55.74231 9.13562 216 ft 19 kts 266°
2026-05-05 20:49 55.74195 9.13367 218 ft 17 kts 233°
2026-05-05 20:49 55.74105 9.13264 216 ft 16 kts 194°
2026-05-05 20:50 55.74001 9.13273 218 ft 14 kts 155°
2026-05-05 20:50 55.73978 9.13415 220 ft 13 kts 88°
2026-05-05 20:50 55.73989 9.13735 216 ft 58 kts 87°
2026-05-05 20:50 55.74023 9.14860 217 ft 128 kts 87°
2026-05-05 20:51 55.74080 9.16749 330 ft 171 kts 85°
2026-05-05 20:51 55.74137 9.18752 1227 ft 160 kts 84°
2026-05-05 20:51 55.74199 9.20719 2054 ft 161 kts 85°
2026-05-05 20:51 55.74265 9.22808 2527 ft 180 kts 85°
2026-05-05 20:52 55.74338 9.25159 2821 ft 202 kts 86°
2026-05-05 20:52 55.74374 9.27790 3035 ft 227 kts 95°
2026-05-05 20:52 55.73992 9.30657 3453 ft 248 kts 108°
2026-05-05 20:52 55.73372 9.33554 4235 ft 255 kts 112°
2026-05-05 20:53 55.72681 9.36506 5014 ft 262 kts 112°
2026-05-05 20:53 55.71976 9.39527 5782 ft 268 kts 112°
2026-05-05 20:53 55.71271 9.42633 6551 ft 275 kts 112°
2026-05-05 20:53 55.70566 9.45829 7274 ft 282 kts 112°
2026-05-05 20:54 55.69857 9.49106 8007 ft 287 kts 111°
2026-05-05 20:54 55.69147 9.52451 8797 ft 292 kts 111°
2026-05-05 20:54 55.68428 9.55860 9541 ft 299 kts 111°
2026-05-05 20:54 55.67705 9.59300 10183 ft 307 kts 111°
2026-05-05 20:55 55.66931 9.62986 10411 ft 331 kts 111°
2026-05-05 20:55 55.66102 9.66917 10687 ft 349 kts 111°
2026-05-05 20:55 55.65243 9.70982 11292 ft 356 kts 112°
2026-05-05 20:55 55.64367 9.75107 11970 ft 361 kts 112°
2026-05-05 20:56 55.63474 9.79288 12645 ft 365 kts 112°
2026-05-05 20:56 55.62568 9.83511 13319 ft 369 kts 113°
2026-05-05 20:56 55.61651 9.87786 13961 ft 374 kts 113°
2026-05-05 20:56 55.60723 9.92113 14557 ft 378 kts 113°
2026-05-05 20:57 55.59773 9.96469 15146 ft 381 kts 116°
2026-05-05 20:57 55.58509 10.00586 15743 ft 382 kts 128°
2026-05-05 20:57 55.56865 10.04272 16350 ft 383 kts 134°
2026-05-05 20:57 55.55132 10.07886 16954 ft 387 kts 134°
2026-05-05 20:58 55.53381 10.11530 17540 ft 392 kts 135°
2026-05-05 20:58 55.51608 10.15214 18121 ft 396 kts 135°
2026-05-05 20:58 55.49817 10.18934 18668 ft 400 kts 135°
2026-05-05 20:58 55.48006 10.22691 19197 ft 403 kts 135°
2026-05-05 20:59 55.46185 10.26463 19737 ft 406 kts 135°
2026-05-05 20:59 55.44344 10.30277 20275 ft 410 kts 135°
2026-05-05 20:59 55.42492 10.34117 20821 ft 413 kts 135°
2026-05-05 20:59 55.40623 10.37986 21366 ft 417 kts 135°
2026-05-05 21:00 55.38737 10.41886 21902 ft 420 kts 135°
2026-05-05 21:00 55.36836 10.45812 22445 ft 423 kts 136°
2026-05-05 21:00 55.34918 10.49762 22973 ft 426 kts 136°
2026-05-05 21:00 55.33008 10.53688 23466 ft 430 kts 136°
2026-05-05 21:01 55.31056 10.57682 23863 ft 433 kts 136°
2026-05-05 21:01 55.29061 10.61754 24289 ft 435 kts 136°
2026-05-05 21:01 55.27104 10.65720 24695 ft 437 kts 137°
2026-05-05 21:01 55.25061 10.69672 25152 ft 435 kts 139°
2026-05-05 21:02 55.22975 10.73540 25527 ft 439 kts 140°
2026-05-05 21:02 55.20850 10.77384 25905 ft 441 kts 140°
2026-05-05 21:02 55.18697 10.81247 26304 ft 444 kts 140°
2026-05-05 21:02 55.16539 10.85135 26700 ft 446 kts 140°
2026-05-05 21:03 55.14378 10.89054 27100 ft 449 kts 140°
2026-05-05 21:03 55.12212 10.93003 27489 ft 451 kts 140°
2026-05-05 21:03 55.10040 10.96978 27874 ft 454 kts 140°
2026-05-05 21:03 55.07854 11.00978 28246 ft 456 kts 140°
2026-05-05 21:04 55.05654 11.04993 28615 ft 459 kts 140°
2026-05-05 21:04 55.03441 11.09022 28981 ft 461 kts 140°
2026-05-05 21:04 55.01215 11.13061 29300 ft 463 kts 140°
2026-05-05 21:04 54.98981 11.17103 29756 ft 463 kts 140°
2026-05-05 21:05 54.96743 11.21148 30117 ft 465 kts 140°
2026-05-05 21:05 54.94498 11.25198 30429 ft 466 kts 141°
2026-05-05 21:05 54.92237 11.29273 30743 ft 468 kts 141°
2026-05-05 21:05 54.89972 11.33355 31058 ft 470 kts 141°
2026-05-05 21:06 54.87697 11.37446 31415 ft 470 kts 141°
2026-05-05 21:06 54.85429 11.41518 31858 ft 469 kts 141°
2026-05-05 21:06 54.83166 11.45574 32297 ft 467 kts 141°
2026-05-05 21:06 54.80903 11.49619 32705 ft 466 kts 141°
2026-05-05 21:07 54.78647 11.53639 33115 ft 465 kts 142°
2026-05-05 21:07 54.76393 11.57651 33535 ft 464 kts 142°
2026-05-05 21:07 54.74173 11.61593 33958 ft 462 kts 142°
2026-05-05 21:07 54.71931 11.65566 34306 ft 462 kts 142°
2026-05-05 21:08 54.69687 11.69536 34592 ft 461 kts 142°
2026-05-05 21:08 54.67449 11.73492 34957 ft 460 kts 142°
2026-05-05 21:08 54.65215 11.77436 35295 ft 459 kts 141°
2026-05-05 21:08 54.62985 11.81367 35604 ft 458 kts 141°
2026-05-05 21:09 54.60752 11.85296 35913 ft 458 kts 141°
2026-05-05 21:09 54.58525 11.89211 36205 ft 458 kts 141°
2026-05-05 21:09 54.56290 11.93129 36471 ft 458 kts 141°
2026-05-05 21:09 54.54054 11.97044 36741 ft 458 kts 141°
2026-05-05 21:10 54.51814 12.00954 36904 ft 458 kts 141°
2026-05-05 21:10 54.49578 12.04854 36937 ft 457 kts 141°
2026-05-05 21:10 54.44973 12.12308 36931 ft 453 kts 145°
2026-05-05 21:11 54.40172 12.19272 36931 ft 451 kts 147°
2026-05-05 21:11 54.35351 12.26155 36932 ft 450 kts 146°
2026-05-05 21:12 54.30583 12.33106 36910 ft 450 kts 145°
2026-05-05 21:12 54.25835 12.40106 36926 ft 451 kts 145°
2026-05-05 21:13 54.21066 12.47111 36933 ft 452 kts 145°
2026-05-05 21:13 54.16287 12.54089 36935 ft 452 kts 145°
2026-05-05 21:14 54.11497 12.61049 36938 ft 452 kts 145°
2026-05-05 21:14 54.06704 12.67989 36919 ft 452 kts 145°
2026-05-05 21:15 54.01943 12.74846 36912 ft 451 kts 145°
2026-05-05 21:15 53.97146 12.81735 36922 ft 452 kts 145°
2026-05-05 21:16 53.92344 12.88620 36922 ft 452 kts 145°
2026-05-05 21:16 53.87540 12.95501 36928 ft 452 kts 145°
2026-05-05 21:17 53.82729 13.02371 36926 ft 452 kts 145°
2026-05-05 21:17 53.78728 13.08060 36927 ft 452 kts 145°
2026-05-05 21:18 53.73903 13.14899 36903 ft 452 kts 145°
2026-05-05 21:18 53.68268 13.22866 36903 ft 452 kts 145°
2026-05-05 21:19 53.63432 13.29662 36915 ft 453 kts 145°
2026-05-05 21:19 53.59409 13.35301 36911 ft 453 kts 145°
2026-05-05 21:20 53.54567 13.42092 36909 ft 453 kts 145°
2026-05-05 21:20 53.49721 13.48862 36911 ft 453 kts 145°
2026-05-05 21:21 53.44872 13.55602 36885 ft 453 kts 145°
2026-05-05 21:21 53.40026 13.62336 36899 ft 452 kts 145°
2026-05-05 21:22 53.35174 13.69057 36897 ft 452 kts 145°
2026-05-05 21:22 53.30315 13.75752 36900 ft 452 kts 145°
2026-05-05 21:23 53.25454 13.82425 36903 ft 452 kts 146°
2026-05-05 21:23 53.20600 13.89079 36892 ft 452 kts 146°
2026-05-05 21:24 53.15728 13.95734 36870 ft 452 kts 146°
2026-05-05 21:24 53.10898 14.02298 36880 ft 451 kts 146°
2026-05-05 21:25 53.06036 14.08905 36890 ft 451 kts 146°
2026-05-05 21:25 53.01146 14.15534 36883 ft 451 kts 146°
2026-05-05 21:26 52.96320 14.22050 36881 ft 450 kts 146°
2026-05-05 21:26 52.91453 14.28600 36881 ft 450 kts 146°
2026-05-05 21:27 52.87032 14.36038 36853 ft 456 kts 136°
2026-05-05 21:27 52.82823 14.43873 36864 ft 455 kts 136°
2026-05-05 21:28 52.78606 14.51678 36869 ft 455 kts 136°
2026-05-05 21:28 52.74388 14.59456 36869 ft 454 kts 136°
2026-05-05 21:29 52.70170 14.67217 36878 ft 454 kts 136°
2026-05-05 21:29 52.65949 14.74955 36876 ft 454 kts 136°
2026-05-05 21:30 52.61729 14.82660 36866 ft 454 kts 136°
2026-05-05 21:30 52.57498 14.90375 36859 ft 453 kts 136°
2026-05-05 21:31 52.53271 14.98061 36868 ft 453 kts 136°
2026-05-05 21:31 52.48897 15.05484 36862 ft 451 kts 141°
2026-05-05 21:32 52.44326 15.12508 36834 ft 450 kts 142°
2026-05-05 21:32 52.39736 15.19491 36841 ft 451 kts 141°
2026-05-05 21:33 52.35174 15.26563 36842 ft 452 kts 141°
2026-05-05 21:33 52.30639 15.33670 36852 ft 452 kts 141°
2026-05-05 21:34 52.26089 15.40748 36854 ft 452 kts 141°
2026-05-05 21:34 52.21528 15.47798 36828 ft 451 kts 141°
2026-05-05 21:35 52.16971 15.54834 36847 ft 451 kts 141°
2026-05-05 21:35 52.12418 15.61841 36857 ft 450 kts 141°
2026-05-05 21:36 52.07862 15.68831 36859 ft 450 kts 141°
2026-05-05 21:36 52.03334 15.75755 36858 ft 450 kts 141°
2026-05-05 21:37 51.98776 15.82697 36847 ft 450 kts 141°
2026-05-05 21:37 51.94210 15.89642 36834 ft 450 kts 141°
2026-05-05 21:38 51.89642 15.96570 36829 ft 450 kts 141°
2026-05-05 21:38 51.85069 16.03475 36837 ft 450 kts 141°
2026-05-05 21:39 51.80492 16.10363 36843 ft 449 kts 141°
2026-05-05 21:39 51.75915 16.17241 36846 ft 449 kts 141°
2026-05-05 21:40 51.71337 16.24111 36824 ft 449 kts 141°
2026-05-05 21:40 51.66748 16.30966 36814 ft 450 kts 141°
2026-05-05 21:41 51.62561 16.38513 36818 ft 455 kts 131°
2026-05-05 21:41 51.58691 16.46582 36809 ft 456 kts 131°
2026-05-05 21:42 51.54805 16.54626 36828 ft 456 kts 131°
2026-05-05 21:42 51.50913 16.62653 36817 ft 456 kts 131°
2026-05-05 21:43 51.47015 16.70674 36821 ft 456 kts 131°
2026-05-05 21:43 51.43109 16.78685 36824 ft 456 kts 131°
2026-05-05 21:44 51.39196 16.86682 36826 ft 456 kts 131°
2026-05-05 21:44 51.35278 16.94663 36822 ft 455 kts 131°
2026-05-05 21:45 51.31394 17.02567 36804 ft 455 kts 131°
2026-05-05 21:45 51.27482 17.10512 36810 ft 455 kts 131°
2026-05-05 21:46 51.23561 17.18430 36808 ft 454 kts 131°
2026-05-05 21:46 51.19631 17.26311 36808 ft 454 kts 131°
2026-05-05 21:47 51.15463 17.33786 36566 ft 448 kts 143°
2026-05-05 21:47 51.13023 17.36822 36282 ft 445 kts 146°
2026-05-05 21:47 51.10560 17.39801 36023 ft 445 kts 146°
2026-05-05 21:48 51.08096 17.42785 35762 ft 444 kts 146°
2026-05-05 21:48 51.05642 17.45761 35237 ft 444 kts 145°
2026-05-05 21:48 51.03185 17.48733 34746 ft 442 kts 145°
2026-05-05 21:48 51.00744 17.51683 34244 ft 440 kts 145°
2026-05-05 21:49 50.98312 17.54620 33768 ft 438 kts 145°
2026-05-05 21:49 50.95893 17.57528 33253 ft 435 kts 145°
2026-05-05 21:49 50.93493 17.60406 32782 ft 431 kts 145°
2026-05-05 21:49 50.91118 17.63255 32311 ft 427 kts 145°
2026-05-05 21:50 50.88760 17.66082 31816 ft 423 kts 145°
2026-05-05 21:50 50.86456 17.68840 31373 ft 419 kts 145°
2026-05-05 21:50 50.84133 17.71611 30906 ft 416 kts 145°
2026-05-05 21:50 50.81832 17.74351 30450 ft 413 kts 145°
2026-05-05 21:51 50.79544 17.77076 29997 ft 410 kts 145°
2026-05-05 21:51 50.77277 17.79780 29509 ft 407 kts 145°
2026-05-05 21:51 50.75029 17.82463 29074 ft 402 kts 145°
2026-05-05 21:51 50.72808 17.85110 28644 ft 398 kts 145°
2026-05-05 21:52 50.68420 17.90313 27819 ft 391 kts 145°
2026-05-05 21:52 50.66250 17.92878 27396 ft 388 kts 145°
2026-05-05 21:52 50.64099 17.95420 27012 ft 385 kts 145°
2026-05-05 21:53 50.62021 17.98070 26605 ft 384 kts 137°
2026-05-05 21:53 50.60323 18.01305 26224 ft 384 kts 124°
2026-05-05 21:53 50.59124 18.05051 25824 ft 384 kts 111°
2026-05-05 21:53 50.58488 18.09123 25416 ft 384 kts 98°
2026-05-05 21:54 50.58334 18.13305 24996 ft 383 kts 94°
2026-05-05 21:54 50.58223 18.17479 24579 ft 381 kts 94°
2026-05-05 21:54 50.58101 18.21638 24148 ft 380 kts 94°
2026-05-05 21:54 50.57974 18.25779 23718 ft 379 kts 94°
2026-05-05 21:55 50.57843 18.29911 23246 ft 378 kts 94°
2026-05-05 21:55 50.57710 18.34026 22775 ft 375 kts 94°
2026-05-05 21:55 50.57578 18.38115 22331 ft 372 kts 94°
2026-05-05 21:55 50.57452 18.42166 21756 ft 372 kts 94°
2026-05-05 21:56 50.57318 18.46316 20738 ft 386 kts 94°
2026-05-05 21:56 50.57167 18.50576 20106 ft 389 kts 95°
2026-05-05 21:56 50.57011 18.54785 19754 ft 383 kts 95°
2026-05-05 21:56 50.56850 18.58940 19308 ft 379 kts 95°
2026-05-05 21:57 50.56687 18.63066 18857 ft 376 kts 95°
2026-05-05 21:57 50.56525 18.67159 18404 ft 374 kts 95°
2026-05-05 21:57 50.56366 18.71222 17937 ft 371 kts 95°
2026-05-05 21:57 50.56278 18.75267 17444 ft 369 kts 92°
2026-05-05 21:58 50.56287 18.79226 16961 ft 366 kts 91°
2026-05-05 21:58 50.56346 18.83262 16467 ft 363 kts 90°
2026-05-05 21:58 50.56419 18.87166 15996 ft 360 kts 90°
2026-05-05 21:58 50.56486 18.91055 15690 ft 347 kts 91°
2026-05-05 21:59 50.56542 18.94737 15126 ft 330 kts 92°
2026-05-05 21:59 50.56583 18.98303 14401 ft 323 kts 92°
2026-05-05 21:59 50.56602 19.01805 13654 ft 318 kts 94°
2026-05-05 21:59 50.56583 19.05255 12824 ft 313 kts 95°
2026-05-05 22:00 50.56548 19.08658 12016 ft 309 kts 95°
2026-05-05 22:00 50.56510 19.12011 11237 ft 305 kts 95°
2026-05-05 22:00 50.56477 19.15319 10478 ft 301 kts 95°
2026-05-05 22:00 50.56450 19.18585 9748 ft 297 kts 94°
2026-05-05 22:01 50.56429 19.21817 8927 ft 294 kts 94°
2026-05-05 22:01 50.56408 19.25016 8099 ft 293 kts 95°
2026-05-05 22:01 50.56386 19.28228 7273 ft 293 kts 95°
2026-05-05 22:01 50.56365 19.31401 6699 ft 284 kts 95°
2026-05-05 22:02 50.56353 19.34391 6429 ft 266 kts 95°
2026-05-05 22:02 50.56339 19.37266 5968 ft 262 kts 96°
2026-05-05 22:02 50.56278 19.40077 5718 ft 254 kts 105°
2026-05-05 22:02 50.55533 19.42472 5063 ft 241 kts 143°
2026-05-05 22:03 50.54088 19.43502 4562 ft 224 kts 183°
2026-05-05 22:03 50.52734 19.42743 4444 ft 201 kts 221°
2026-05-05 22:03 50.51853 19.41142 4403 ft 187 kts 229°
2026-05-05 22:03 50.51036 19.39597 4358 ft 182 kts 226°
2026-05-05 22:04 50.50150 19.38185 4316 ft 181 kts 220°
2026-05-05 22:04 50.49142 19.37004 4278 ft 181 kts 222°
2026-05-05 22:04 50.48658 19.35211 4247 ft 188 kts 265°
2026-05-05 22:04 50.48988 19.33266 4161 ft 177 kts 276°
2026-05-05 22:05 50.48981 19.31448 3756 ft 163 kts 249°
2026-05-05 22:05 50.48626 19.29861 3371 ft 147 kts 240°
2026-05-05 22:05 50.48195 19.28457 3027 ft 138 kts 238°
2026-05-05 22:05 50.47770 19.27107 3032 ft 139 kts 237°
2026-05-05 22:06 50.47523 19.25649 2910 ft 148 kts 265°
2026-05-05 22:06 50.47605 19.24082 2768 ft 138 kts 258°
2026-05-05 22:06 50.47582 19.22583 2600 ft 136 kts 260°
2026-05-05 22:06 50.47573 19.21096 2423 ft 136 kts 261°
2026-05-05 22:07 50.47571 19.19611 2248 ft 136 kts 261°
2026-05-05 22:07 50.47573 19.18126 2071 ft 136 kts 262°
2026-05-05 22:07 50.47576 19.16635 1891 ft 138 kts 262°
2026-05-05 22:07 50.47580 19.15109 1700 ft 140 kts 264°
2026-05-05 22:08 50.47585 19.13571 1506 ft 141 kts 266°
2026-05-05 22:08 50.47591 19.12025 1296 ft 141 kts 266°
2026-05-05 22:08 50.47592 19.10479 1105 ft 142 kts 267°
2026-05-05 22:08 50.47596 19.08951 1002 ft 129 kts 270°
2026-05-05 22:09 50.47600 19.07723 1000 ft 94 kts 270°
2026-05-05 22:09 50.47602 19.06858 999 ft 66 kts 270°
2026-05-05 22:09 50.47604 19.06296 996 ft 37 kts 270°
2026-05-05 22:09 50.47596 19.06041 995 ft 16 kts 248°
2026-05-05 22:10 50.47540 19.05979 993 ft 16 kts 186°
2026-05-05 22:10 50.47435 19.06033 996 ft 13 kts 116°
2026-05-05 22:10 50.47428 19.06178 994 ft 14 kts 90°
2026-05-05 22:10 50.47428 19.06329 995 ft 14 kts 90°
2026-05-05 22:11 50.47427 19.06479 997 ft 10 kts 90°
2026-05-05 22:11 50.47422 19.06580 1000 ft 9 kts 110°
2026-05-05 22:11 50.47388 19.06622 998 ft 10 kts 162°
2026-05-05 22:11 50.47320 19.06625 998 ft 10 kts 180°
2026-05-05 22:12 50.47249 19.06651 998 ft 11 kts 135°
2026-05-05 22:12 50.47235 19.06753 1003 ft 9 kts 92°
2026-05-05 22:12 50.47234 19.06841 1000 ft 8 kts 91°
2026-05-05 22:12 50.47235 19.06916 1001 ft 8 kts 88°
2026-05-05 22:13 50.47231 19.06997 1004 ft 6 kts 115°
2026-05-05 22:13 50.47188 19.07019 998 ft 7 kts 182°
2026-05-05 22:13 50.47174 19.07018 998 ft 3 kts 181°
2026-05-05 22:13 50.47169 19.07018 1004 ft 0 kts 181°